Location: Grange Verzio
(44.5000°N, 6.9833°E)
Time: 05:46:25
(UTC+00:00)

ARGOS - Visible Passes

Search period start: 30 September 2023 00:00
Search period end: 10 October 2023 00:00
Orbit: 819 x 835 km, 98.4° (Epoch: 29 September)

Date Brightness Start Highest point End Pass type
(mag) Time Alt. Az. Time Alt. Az. Time Alt. Az.
30 Sep 5.9 04:02:00 10° NE 04:05:57 20° E 04:09:53 10° SE visible
01 Oct 6.3 03:44:13 10° ENE 03:46:54 14° E 03:49:36 10° ESE visible
03 Oct 4.3 04:44:54 10° NNE 04:50:08 48° E 04:55:21 10° S visible
03 Oct 6.8 17:53:47 10° WSW 17:55:56 12° W 17:58:05 10° WNW visible
04 Oct 5.1 04:26:21 10° NNE 04:31:13 33° E 04:36:04 10° SSE visible
04 Oct 6.4 17:33:14 10° SW 17:36:53 18° W 17:40:32 10° NW visible
05 Oct 5.7 04:07:59 10° NE 04:12:15 23° E 04:16:30 10° SE visible
06 Oct 6.2 03:49:57 10° NE 03:53:14 16° E 03:56:30 10° SE visible
07 Oct 6.5 03:33:06 10° ENE 03:34:09 11° E 03:35:13 10° E visible
08 Oct 4.0 04:51:04 10° NNE 04:56:23 56° E 05:01:42 10° S visible
08 Oct 6.9 18:01:20 10° W 18:02:16 10° W 18:03:12 10° WNW visible
09 Oct 4.8 04:32:27 10° NNE 04:37:30 38° E 04:42:32 10° SSE visible
09 Oct 6.4 17:39:58 10° SW 17:43:11 16° W 17:46:25 10° NW visible
